Regional Weather Roundup
Issued by NWS

Home | Current Version | Previous Version | Text Only | Print | Product List | Glossary Off
Versions: 1 2 3 4 5 6 7 8 9 10 11 12 13 14 15 16 17 18 19 20 21 22 23 24 25 26 27 28 29 30 31 32 33 34 35 36 37 38 39 40 41 42 43 44 45 46 47 48 49 50

000
ASUS46 KSTO 200109
RWRCA

NORTHERN AND CENTRAL CA REGIONAL WEATHER ROUNDUP
NATIONAL WEATHER SERVICE SACRAMENTO CA
600 PM PDT TUE AUG 19 2014

NOTE: FAIR INDICATES FEW OR NO CLOUDS BELOW 12,000 FEET WITH NO
SIGNIFICANT WEATHER AND/OR OBSTRUCTIONS TO VISIBILITY.

CAZ001-003-200200-
NORTHWEST AREA

CITY           SKY/WX    TMP DP  RH WIND       PRES   REMARKS
CRESCENT CITY  PTSUNNY   61  56  83 SE13      29.81F
ARCATA         NOT AVBL
SHELTER COVE   NOT AVBL
UKIAH          SUNNY     89  55  31 E6        29.75R
$$

CAZ006-505>513-200200-
BAY AREA

CITY           SKY/WX    TMP DP  RH WIND       PRES   REMARKS
SANTA ROSA     MOSUNNY   68  57  68 S10       29.80R
SAN RAFAEL     N/A       68  MM  MM MISG
NAPA           MOSUNNY   68  59  73 S23G29    29.79S
CONCORD        SUNNY     71  56  58 W18       29.79S
OAKLAND CITY   N/A       70  MM  MM MISG
OAKLAND        MOSUNNY   70  57  63 W15       29.82S
SAN FRAN CITY  N/A       66  MM  74 MISG
SAN FRAN ARPT  MOSUNNY   72  59  63 S10       29.81S
LIVERMORE      SUNNY     74  57  55 W16G24    29.78S
HAYWARD        SUNNY     73  59  61 NW14      29.81F
REDWOOD CITY   N/A       MM  MM  MM MISG
MOFFETT ARPT   SUNNY     74  58  57 N18       29.80S
SAN JOSE ARPT  MOSUNNY   75  58  55 NW10      29.80R
$$
CAZ034-037-514>518-200200-
CENTRAL COAST

CITY           SKY/WX    TMP DP  RH WIND       PRES   REMARKS
WATSONVILLE    CLOUDY    66  59  78 SW9       29.87S
SALINAS        CLOUDY    67  56  67 W7        29.86R
MONTEREY       CLOUDY    64  56  75 SW13      29.87R
PT PIEDRAS BLS NOT AVBL
SAN LUIS OBISP MOSUNNY   68  56  65 NW13      29.86S
SANTA MARIA    MOSUNNY   71  55  56 NW14      29.86S
$$
CAZ015-016-200200-
NORTHERN SACRAMENTO VALLEY

CITY           SKY/WX    TMP DP  RH WIND       PRES   REMARKS
REDDING        MOSUNNY   94  47  20 S13       29.65S HX  90
RED BLUFF      SUNNY     93  48  21 S16       29.67S
OROVILLE       SUNNY     89  52  28 S10       29.70F
$$
CAZ016>018-200200-
SOUTHERN SACRAMENTO VALLEY

CITY           SKY/WX    TMP DP  RH WIND       PRES   REMARKS
AUBURN         SUNNY     82  54  36 SW6       29.79S
BEALE AFB      SUNNY     87  55  33 S12       29.69F
LINCOLN        FAIR      88  50  27 S9        29.70S
MARYSVILLE     MOSUNNY   87  58  37 S14       29.69F
SAC INTL ARPT  MOSUNNY   83  56  39 S16       29.70F
MATHER AIRPORT MOSUNNY   82  55  39 SW13      29.73S
DOWNTOWN SAC   N/A       82  MM  MM MISG
SAC EXEC ARPT  SUNNY     79  58  48 S13       29.73R
VACAVILLE      SUNNY     79  56  45 SW14G22   29.72S
TRAVIS AFB     SUNNY     74  60  59 SW26      29.72S
$$
CAZ019>021-200200-
SAN JOAQUIN VALLEY

CITY           SKY/WX    TMP DP  RH WIND       PRES   REMARKS
STOCKTON       SUNNY     83  59  44 NW7       29.74S
MODESTO        SUNNY     86  58  38 NW9       29.73R
MERCED         SUNNY     89  53  29 W7        29.72S
LEMOORE        PTSUNNY   90  50  25 NE10      29.72S
FRESNO         MOSUNNY   92  41  17 CALM      29.72S
HANFORD        MOSUNNY   90  46  21 W7        29.72S
PORTERVILLE    MOSUNNY   90  48  24 NW7       29.74S
BAKERSFIELD    SUNNY     91  46  21 NW16      29.72S
$$
CAZ011-012-071-200200-
NORTHERN MOUNTAINS

CITY           SKY/WX    TMP DP  RH WIND       PRES   REMARKS
YREKA          MOSUNNY   88  50  27 N22       29.79S
MOUNT SHASTA   PTSUNNY   80  48  32 CALM      29.82S
ALTURAS        MOSUNNY   79  41  25 W15       29.87R
$$
CAZ011-012-071-200200-
SIERRA NEVADA MTNS

CITY           SKY/WX    TMP DP  RH WIND       PRES   REMARKS
BLUE CANYON    SUNNY     72  34  24 W7        30.01S
TRUCKEE        MOSUNNY   75  39  27 W14G23    29.98R
TAHOE VLY ARPT SUNNY     76  36  23 VRB5      30.00R
MAMMOTH LAKES  FAIR      73  32  21 NW12G21   30.00S
$$




USA.gov is the U.S. government's official web portal to all federal, state and local government web resources and services.